Weather WX

World > North America > United States > North Dakota

Grafton, North Dakota Regional Weather

Lat: 48.42N, Lon: 97.4W
Wx Zone: NDZ016
Feedback

Grafton, ND Regional Weather

Expires:201907201900;;362691
ASUS43 KBIS 201810
RWRND 

NORTH DAKOTA REGIONAL WEATHER ROUNDUP
NATIONAL WEATHER SERVICE BISMARCK ND
100 PM CDT SAT JUL 20 2019

NOTE: "FAIR" INDICATES FEW OR NO CLOUDS BELOW 12,000 FEET WITH NO
SIGNIFICANT WEATHER AND/OR OBSTRUCTIONS TO VISIBILITY.



NDZ004>008-012>016-024-026-027-054-201900-
NORTHEAST NORTH DAKOTA
  
CITY           SKY/WX    TMP DP  RH WIND       PRES   REMARKS
GRAND FORKS    MOSUNNY   80  52  37 W8        29.89R                  
GRND FRKS AFB  SUNNY     79  52  38 NW10      29.91R                  
DEVILS LAKE    MOSUNNY   75  48  38 NW8       29.96R                  
$$
 

SKY/WX - Weather  TMP - Temperature  DP - Dew Point  RH - Relative Humidity
WIND - Wind Direction/Speed PRES - Barometric Pressure VSB - Visibility
WCI - Wind Chill Index E13G22 Wind - East Wind 13 mph/Gusts of 22 mph